Time,TemperatureF,DewpointF,PressureIn,WindDirection,WindDirectionDegrees,WindSpeedMPH,WindSpeedGustMPH,Humidity,HourlyPrecipIn,Conditions,Clouds,dailyrainin,SoftwareType,DateUTC
2013-09-08 00:01:00,68.2,65.1,29.96,North,354,2.0,2.0,90,0.00,,,0.00,meteohub,2013-09-08 04:01:00,
2013-09-08 00:02:00,68.2,65.1,29.96,NNW,345,2.0,2.0,90,0.00,,,0.00,meteohub,2013-09-08 04:02:00,
2013-09-08 00:04:00,68.2,65.1,29.96,NNW,345,1.0,3.0,90,0.00,,,0.00,meteohub,2013-09-08 04:04:00,
2013-09-08 00:05:00,68.2,65.1,29.96,NNW,345,1.0,3.0,90,0.00,,,0.00,meteohub,2013-09-08 04:05:00,
2013-09-08 00:06:00,68.2,65.1,29.96,NNW,346,1.0,3.0,90,0.00,,,0.00,meteohub,2013-09-08 04:06:00,
2013-09-08 00:11:00,68.0,64.9,29.96,NNW,347,0.0,3.0,90,0.00,,,0.00,meteohub,2013-09-08 04:11:00,
2013-09-08 00:16:00,67.8,64.8,29.96,NNW,347,0.0,3.0,90,0.00,,,0.00,meteohub,2013-09-08 04:16:00,
2013-09-08 00:22:00,67.8,64.8,29.96,NNW,347,0.0,2.0,90,0.00,,,0.00,meteohub,2013-09-08 04:22:00,
2013-09-08 00:27:00,67.6,64.6,29.96,NNW,347,0.0,2.0,90,0.00,,,0.00,meteohub,2013-09-08 04:27:00,
2013-09-08 00:32:00,67.5,64.4,29.96,NNW,347,0.0,1.0,90,0.00,,,0.00,meteohub,2013-09-08 04:32:00,
2013-09-08 00:37:00,67.5,64.8,29.96,NNW,347,0.0,1.0,91,0.00,,,0.00,meteohub,2013-09-08 04:37:00,
2013-09-08 00:42:00,67.3,64.6,29.96,NNW,347,0.0,0.0,91,0.00,,,0.00,meteohub,2013-09-08 04:42:00,
2013-09-08 00:47:00,66.9,64.2,29.96,NNW,347,0.0,0.0,91,0.00,,,0.00,meteohub,2013-09-08 04:47:00,
2013-09-08 00:52:00,66.7,64.0,29.96,NNW,347,0.0,0.0,91,0.00,,,0.00,meteohub,2013-09-08 04:52:00,
2013-09-08 00:57:00,66.4,63.7,29.96,NNW,347,0.0,0.0,91,0.00,,,0.00,meteohub,2013-09-08 04:57:00,
2013-09-08 01:02:00,66.2,63.9,29.96,NNW,347,0.0,0.0,92,0.00,,,0.00,meteohub,2013-09-08 05:02:00,
2013-09-08 01:07:00,66.0,63.7,29.97,NNW,347,0.0,0.0,92,0.00,,,0.00,meteohub,2013-09-08 05:07:00,
2013-09-08 01:12:00,66.0,63.9,29.97,NNW,347,0.0,0.0,93,0.00,,,0.00,meteohub,2013-09-08 05:12:00,
2013-09-08 01:17:00,66.0,63.9,29.97,NNW,347,0.0,0.0,93,0.00,,,0.00,meteohub,2013-09-08 05:17:00,
2013-09-08 01:22:00,66.0,63.9,29.97,NNW,347,0.0,0.0,93,0.00,,,0.00,meteohub,2013-09-08 05:22:00,
2013-09-08 01:28:00,66.2,64.0,29.97,North,352,1.0,1.0,93,0.00,,,0.00,meteohub,2013-09-08 05:28:00,
2013-09-08 01:33:00,66.4,64.2,29.97,North,352,0.0,2.0,93,0.00,,,0.00,meteohub,2013-09-08 05:33:00,
2013-09-08 01:38:00,66.4,64.2,29.97,North,354,0.0,2.0,93,0.00,,,0.00,meteohub,2013-09-08 05:38:00,
2013-09-08 01:43:00,66.2,64.0,29.97,North,354,0.0,2.0,93,0.00,,,0.00,meteohub,2013-09-08 05:43:00,
2013-09-08 01:49:00,66.2,64.0,29.97,North,354,0.0,1.0,93,0.00,,,0.00,meteohub,2013-09-08 05:49:00,
2013-09-08 01:54:00,66.2,64.4,29.97,North,354,0.0,1.0,94,0.00,,,0.00,meteohub,2013-09-08 05:54:00,
2013-09-08 01:59:00,66.2,64.4,29.97,North,354,0.0,1.0,94,0.00,,,0.00,meteohub,2013-09-08 05:59:00,
2013-09-08 02:04:00,66.4,64.6,29.97,North,354,0.0,0.0,94,0.00,,,0.00,meteohub,2013-09-08 06:04:00,
2013-09-08 02:09:00,66.4,64.6,29.97,North,354,0.0,0.0,94,0.00,,,0.00,meteohub,2013-09-08 06:09:00,
2013-09-08 02:15:00,66.4,64.6,29.97,North,354,0.0,0.0,94,0.00,,,0.00,meteohub,2013-09-08 06:15:00,
2013-09-08 02:20:00,66.4,64.6,29.97,North,354,0.0,0.0,94,0.00,,,0.00,meteohub,2013-09-08 06:20:00,
2013-09-08 02:25:00,66.0,64.2,29.97,North,354,0.0,0.0,94,0.00,,,0.00,meteohub,2013-09-08 06:25:00,
2013-09-08 02:30:00,66.0,64.2,29.97,North,354,0.0,0.0,94,0.00,,,0.00,meteohub,2013-09-08 06:30:00,
2013-09-08 02:36:00,66.0,64.6,29.97,North,354,0.0,0.0,95,0.00,,,0.00,meteohub,2013-09-08 06:36:00,
2013-09-08 02:41:00,66.4,64.9,29.97,North,353,0.0,0.0,95,0.00,,,0.00,meteohub,2013-09-08 06:41:00,
2013-09-08 02:46:00,66.2,64.8,29.97,NNW,345,0.0,1.0,95,0.00,,,0.00,meteohub,2013-09-08 06:46:00,
2013-09-08 02:51:00,66.0,64.6,29.97,NNW,345,0.0,1.0,95,0.00,,,0.00,meteohub,2013-09-08 06:51:00,
2013-09-08 02:56:00,65.8,64.4,29.97,North,349,0.0,1.0,95,0.00,,,0.00,meteohub,2013-09-08 06:56:00,
2013-09-08 03:02:00,65.8,64.4,29.97,North,349,0.0,1.0,95,0.00,,,0.00,meteohub,2013-09-08 07:02:00,
2013-09-08 03:07:00,65.7,64.2,29.97,North,11,0.0,1.0,95,0.00,,,0.00,meteohub,2013-09-08 07:07:00,
2013-09-08 03:12:00,65.7,64.2,29.97,North,11,0.0,1.0,95,0.00,,,0.00,meteohub,2013-09-08 07:12:00,
2013-09-08 03:17:00,65.7,64.2,29.97,North,11,0.0,1.0,95,0.00,,,0.00,meteohub,2013-09-08 07:17:00,
2013-09-08 03:22:00,65.7,64.2,29.96,North,11,0.0,1.0,95,0.00,,,0.00,meteohub,2013-09-08 07:22:00,
2013-09-08 03:27:00,65.8,64.6,29.97,North,11,0.0,1.0,96,0.00,,,0.00,meteohub,2013-09-08 07:27:00,
2013-09-08 03:32:00,65.8,64.6,29.96,North,5,0.0,1.0,96,0.00,,,0.00,meteohub,2013-09-08 07:32:00,
2013-09-08 03:37:00,66.0,64.8,29.97,North,4,0.0,1.0,96,0.00,,,0.00,meteohub,2013-09-08 07:37:00,
2013-09-08 03:42:00,65.8,64.6,29.97,North,5,0.0,1.0,96,0.00,,,0.00,meteohub,2013-09-08 07:42:00,
2013-09-08 03:47:00,65.7,64.2,29.97,North,5,0.0,1.0,95,0.00,,,0.00,meteohub,2013-09-08 07:47:00,
2013-09-08 03:52:00,65.7,64.4,29.97,NNE,23,0.0,1.0,96,0.00,,,0.00,meteohub,2013-09-08 07:52:00,
2013-09-08 03:57:00,65.7,64.4,29.97,NE,34,0.0,1.0,96,0.00,,,0.00,meteohub,2013-09-08 07:57:00,
2013-09-08 04:02:00,66.0,64.8,29.97,NNE,26,0.0,1.0,96,0.00,,,0.00,meteohub,2013-09-08 08:02:00,
2013-09-08 04:07:00,66.4,65.5,29.97,North,5,1.0,4.0,97,0.00,,,0.00,meteohub,2013-09-08 08:07:00,
2013-09-08 04:12:00,66.6,65.7,29.97,NE,44,2.0,4.0,97,0.00,,,0.00,meteohub,2013-09-08 08:12:00,
2013-09-08 04:17:00,66.6,65.3,29.98,North,354,1.0,6.0,96,0.00,,,0.00,meteohub,2013-09-08 08:17:00,
2013-09-08 04:22:00,66.6,65.3,29.98,NE,40,2.0,6.0,96,0.00,,,0.00,meteohub,2013-09-08 08:22:00,
2013-09-08 04:27:00,66.6,65.3,29.98,North,9,0.0,6.0,96,0.00,,,0.00,meteohub,2013-09-08 08:27:00,
2013-09-08 04:33:00,66.4,65.1,29.98,North,9,0.0,2.0,96,0.00,,,0.00,meteohub,2013-09-08 08:33:00,
2013-09-08 04:38:00,66.4,65.1,29.98,NNE,12,1.0,2.0,96,0.00,,,0.00,meteohub,2013-09-08 08:38:00,
2013-09-08 04:43:00,66.4,65.1,29.98,NNE,29,4.0,4.0,96,0.00,,,0.00,meteohub,2013-09-08 08:43:00,
2013-09-08 04:48:00,66.4,65.1,29.99,North,355,2.0,5.0,96,0.00,,,0.00,meteohub,2013-09-08 08:48:00,
2013-09-08 04:53:00,66.4,65.1,29.99,North,8,1.0,5.0,96,0.00,,,0.00,meteohub,2013-09-08 08:53:00,
2013-09-08 04:59:00,66.4,65.1,29.99,NNE,17,1.0,5.0,96,0.00,,,0.00,meteohub,2013-09-08 08:59:00,
2013-09-08 05:04:00,66.4,65.1,29.99,NNE,29,3.0,5.0,96,0.00,,,0.00,meteohub,2013-09-08 09:04:00,
2013-09-08 05:09:00,66.4,65.1,29.99,NE,50,1.0,4.0,96,0.00,,,0.00,meteohub,2013-09-08 09:09:00,
2013-09-08 05:14:00,66.4,65.1,29.99,NE,40,3.0,3.0,96,0.00,,,0.00,meteohub,2013-09-08 09:14:00,
2013-09-08 05:20:00,66.4,65.1,30.00,ENE,64,1.0,3.0,96,0.00,,,0.00,meteohub,2013-09-08 09:20:00,
2013-09-08 05:25:00,66.4,65.1,30.00,ENE,68,2.0,4.0,96,0.00,,,0.00,meteohub,2013-09-08 09:25:00,
2013-09-08 05:30:00,66.4,65.1,30.00,NE,39,4.0,4.0,96,0.00,,,0.00,meteohub,2013-09-08 09:30:00,
2013-09-08 05:35:00,66.4,65.5,30.00,ENE,65,4.0,5.0,97,0.00,,,0.00,meteohub,2013-09-08 09:35:00,
2013-09-08 05:40:00,66.6,65.7,30.00,ENE,71,4.0,5.0,97,0.00,,,0.00,meteohub,2013-09-08 09:40:00,
2013-09-08 05:46:00,66.7,65.8,30.00,NE,40,5.0,7.0,97,0.00,,,0.00,meteohub,2013-09-08 09:46:00,
2013-09-08 05:51:00,66.7,65.8,30.00,NNE,24,5.0,7.0,97,0.00,,,0.00,meteohub,2013-09-08 09:51:00,
2013-09-08 05:56:00,66.7,65.5,30.00,ENE,68,2.0,9.0,96,0.00,,,0.00,meteohub,2013-09-08 09:56:00,
2013-09-08 06:01:00,66.9,65.7,30.00,ENE,65,6.0,9.0,96,0.00,,,0.00,meteohub,2013-09-08 10:01:00,
2013-09-08 06:06:00,66.9,65.7,30.00,ENE,76,5.0,9.0,96,0.00,,,0.00,meteohub,2013-09-08 10:06:00,
2013-09-08 06:12:00,66.9,65.7,30.00,ENE,65,2.0,9.0,96,0.00,,,0.00,meteohub,2013-09-08 10:12:00,
2013-09-08 06:17:00,66.9,65.7,30.00,NNE,26,1.0,10.0,96,0.00,,,0.00,meteohub,2013-09-08 10:17:00,
2013-09-08 06:22:00,66.9,65.7,30.00,North,0,7.0,10.0,96,0.00,,,0.00,meteohub,2013-09-08 10:22:00,
2013-09-08 06:27:00,66.9,65.5,30.01,ENE,71,4.0,11.0,95,0.00,,,0.00,meteohub,2013-09-08 10:27:00,
2013-09-08 06:33:00,66.9,65.5,30.01,NE,52,2.0,11.0,95,0.00,,,0.00,meteohub,2013-09-08 10:33:00,
2013-09-08 06:38:00,66.7,65.3,30.01,ENE,76,2.0,12.0,95,0.00,,,0.00,meteohub,2013-09-08 10:38:00,
2013-09-08 06:43:00,66.7,65.3,30.01,ENE,64,4.0,12.0,95,0.00,,,0.00,meteohub,2013-09-08 10:43:00,
2013-09-08 06:48:00,66.7,64.9,30.02,NE,56,3.0,11.0,94,0.00,,,0.00,meteohub,2013-09-08 10:48:00,
2013-09-08 06:54:00,66.7,64.9,30.02,East,83,5.0,11.0,94,0.00,,,0.00,meteohub,2013-09-08 10:54:00,
2013-09-08 06:59:00,66.6,64.8,30.02,East,79,3.0,11.0,94,0.00,,,0.00,meteohub,2013-09-08 10:59:00,
2013-09-08 07:04:00,66.6,65.1,30.02,East,86,5.0,9.0,95,0.00,,,0.00,meteohub,2013-09-08 11:04:00,
2013-09-08 07:09:00,66.4,64.6,30.02,East,80,3.0,9.0,94,0.00,,,0.00,meteohub,2013-09-08 11:09:00,
2013-09-08 07:14:00,66.4,64.9,30.02,East,79,5.0,10.0,95,0.00,,,0.00,meteohub,2013-09-08 11:14:00,
2013-09-08 07:20:00,66.4,64.9,30.02,East,79,3.0,8.0,95,0.00,,,0.00,meteohub,2013-09-08 11:20:00,
2013-09-08 07:25:00,66.0,64.6,30.02,East,81,2.0,8.0,95,0.00,,,0.00,meteohub,2013-09-08 11:25:00,
2013-09-08 07:30:00,66.0,64.6,30.03,NE,49,5.0,8.0,95,0.00,,,0.00,meteohub,2013-09-08 11:30:00,
2013-09-08 07:35:00,66.0,64.6,30.03,East,83,2.0,6.0,95,0.00,,,0.00,meteohub,2013-09-08 11:35:00,
2013-09-08 07:40:00,66.0,64.6,30.03,ENE,78,3.0,6.0,95,0.00,,,0.00,meteohub,2013-09-08 11:40:00,
2013-09-08 07:45:00,65.8,64.4,30.03,ENE,65,4.0,6.0,95,0.00,,,0.00,meteohub,2013-09-08 11:45:00,
2013-09-08 07:51:00,65.8,64.4,30.03,ESE,107,2.0,6.0,95,0.00,,,0.00,meteohub,2013-09-08 11:51:00,
2013-09-08 07:56:00,66.0,64.6,30.04,ENE,72,7.0,9.0,95,0.00,,,0.00,meteohub,2013-09-08 11:56:00,
2013-09-08 08:01:00,66.2,64.8,30.04,NNE,23,12.0,13.0,95,0.00,,,0.00,meteohub,2013-09-08 12:01:00,
2013-09-08 08:06:00,66.4,64.6,30.04,ENE,71,6.0,13.0,94,0.00,,,0.00,meteohub,2013-09-08 12:06:00,
2013-09-08 08:11:00,66.4,64.6,30.04,ENE,74,6.0,13.0,94,0.00,,,0.00,meteohub,2013-09-08 12:11:00,
2013-09-08 08:17:00,66.6,64.4,30.05,East,85,2.0,13.0,93,0.00,,,0.00,meteohub,2013-09-08 12:17:00,
2013-09-08 08:22:00,66.6,64.4,30.05,ENE,73,8.0,13.0,93,0.00,,,0.00,meteohub,2013-09-08 12:22:00,
2013-09-08 08:27:00,66.6,64.4,30.05,ENE,60,6.0,10.0,93,0.00,,,0.00,meteohub,2013-09-08 12:27:00,
2013-09-08 08:32:00,66.7,64.6,30.05,East,82,8.0,9.0,93,0.00,,,0.00,meteohub,2013-09-08 12:32:00,
2013-09-08 08:37:00,66.7,64.6,30.05,SE,146,6.0,10.0,93,0.00,,,0.00,meteohub,2013-09-08 12:37:00,
2013-09-08 08:43:00,66.9,64.8,30.05,ENE,74,5.0,11.0,93,0.00,,,0.00,meteohub,2013-09-08 12:43:00,
2013-09-08 08:48:00,66.9,64.6,30.05,ENE,60,11.0,11.0,92,0.00,,,0.00,meteohub,2013-09-08 12:48:00,
2013-09-08 08:53:00,67.1,64.8,30.05,ENE,68,4.0,12.0,92,0.00,,,0.00,meteohub,2013-09-08 12:53:00,
2013-09-08 08:58:00,67.1,64.8,30.05,East,95,7.0,12.0,92,0.00,,,0.00,meteohub,2013-09-08 12:58:00,
2013-09-08 09:03:00,67.3,64.9,30.05,ENE,68,4.0,12.0,92,0.00,,,0.00,meteohub,2013-09-08 13:03:00,
2013-09-08 09:08:00,67.3,64.6,30.05,ESE,106,7.0,11.0,91,0.00,,,0.00,meteohub,2013-09-08 13:08:00,
2013-09-08 09:14:00,67.6,64.6,30.06,ENE,74,8.0,16.0,90,0.00,,,0.00,meteohub,2013-09-08 13:14:00,
2013-09-08 09:19:00,67.6,64.2,30.05,ENE,76,6.0,17.0,89,0.00,,,0.00,meteohub,2013-09-08 13:19:00,
2013-09-08 09:24:00,67.6,64.0,30.06,ESE,113,8.0,17.0,88,0.00,,,0.00,meteohub,2013-09-08 13:24:00,
2013-09-08 09:29:00,67.5,63.1,30.06,East,79,6.0,17.0,86,0.00,,,0.00,meteohub,2013-09-08 13:29:00,
2013-09-08 09:34:00,67.3,63.3,30.06,ENE,77,8.0,17.0,87,0.00,,,0.00,meteohub,2013-09-08 13:34:00,
2013-09-08 09:40:00,67.1,63.1,30.06,ENE,65,7.0,17.0,87,0.00,,,0.00,meteohub,2013-09-08 13:40:00,
2013-09-08 09:45:00,66.9,63.0,30.06,East,86,8.0,17.0,87,0.00,,,0.00,meteohub,2013-09-08 13:45:00,
2013-09-08 09:50:00,66.7,63.1,30.06,ENE,68,10.0,15.0,88,0.00,,,0.00,meteohub,2013-09-08 13:50:00,
2013-09-08 09:55:00,66.6,63.0,30.06,ENE,60,7.0,19.0,88,0.00,,,0.00,meteohub,2013-09-08 13:55:00,
2013-09-08 10:00:00,66.2,62.6,30.06,East,83,6.0,19.0,88,0.00,,,0.00,meteohub,2013-09-08 14:00:00,
2013-09-08 10:05:00,66.2,62.6,30.07,ENE,60,8.0,19.0,88,0.00,,,0.00,meteohub,2013-09-08 14:05:00,
2013-09-08 10:11:00,66.0,62.4,30.07,East,83,11.0,18.0,88,0.00,,,0.00,meteohub,2013-09-08 14:11:00,
2013-09-08 10:16:00,65.8,62.2,30.07,ENE,65,5.0,18.0,88,0.00,,,0.00,meteohub,2013-09-08 14:16:00,
2013-09-08 10:21:00,66.0,62.4,30.07,East,82,11.0,16.0,88,0.00,,,0.00,meteohub,2013-09-08 14:21:00,
2013-09-08 10:26:00,66.0,62.1,30.07,ENE,67,9.0,16.0,87,0.00,,,0.00,meteohub,2013-09-08 14:26:00,
2013-09-08 10:31:00,66.0,62.1,30.07,East,91,5.0,15.0,87,0.00,,,0.00,meteohub,2013-09-08 14:31:00,
2013-09-08 10:37:00,66.2,62.2,30.07,ENE,72,9.0,17.0,87,0.00,,,0.00,meteohub,2013-09-08 14:37:00,
2013-09-08 10:42:00,66.2,62.2,30.08,ENE,60,12.0,17.0,87,0.00,,,0.00,meteohub,2013-09-08 14:42:00,
2013-09-08 10:47:00,66.4,62.1,30.08,East,91,4.0,17.0,86,0.00,,,0.00,meteohub,2013-09-08 14:47:00,
2013-09-08 10:52:00,66.6,62.2,30.08,ESE,102,9.0,17.0,86,0.00,,,0.00,meteohub,2013-09-08 14:52:00,
2013-09-08 10:57:00,66.7,62.1,30.08,East,98,7.0,16.0,85,0.00,,,0.00,meteohub,2013-09-08 14:57:00,
2013-09-08 11:02:00,66.7,62.1,30.08,NE,47,8.0,14.0,85,0.00,,,0.00,meteohub,2013-09-08 15:02:00,
2013-09-08 11:08:00,66.9,61.9,30.08,East,91,9.0,14.0,84,0.00,,,0.00,meteohub,2013-09-08 15:08:00,
2013-09-08 11:13:00,67.3,62.2,30.08,ESE,115,4.0,16.0,84,0.00,,,0.00,meteohub,2013-09-08 15:13:00,
2013-09-08 11:18:00,67.5,62.4,30.08,East,95,7.0,16.0,84,0.00,,,0.00,meteohub,2013-09-08 15:18:00,
2013-09-08 11:23:00,67.6,61.9,30.09,ENE,65,14.0,16.0,82,0.00,,,0.00,meteohub,2013-09-08 15:23:00,
2013-09-08 11:28:00,67.8,62.1,30.08,East,79,6.0,16.0,82,0.00,,,0.00,meteohub,2013-09-08 15:28:00,
2013-09-08 11:34:00,67.8,61.7,30.08,ENE,71,7.0,18.0,81,0.00,,,0.00,meteohub,2013-09-08 15:34:00,
2013-09-08 11:39:00,67.8,62.1,30.08,East,96,10.0,18.0,82,0.00,,,0.00,meteohub,2013-09-08 15:39:00,
2013-09-08 11:44:00,68.0,62.2,30.08,East,96,7.0,16.0,82,0.00,,,0.00,meteohub,2013-09-08 15:44:00,
2013-09-08 11:49:00,68.4,62.6,30.08,ESE,107,4.0,16.0,82,0.00,,,0.00,meteohub,2013-09-08 15:49:00,
2013-09-08 11:54:00,68.5,62.4,30.08,ENE,72,7.0,15.0,81,0.00,,,0.00,meteohub,2013-09-08 15:54:00,
2013-09-08 11:59:00,68.5,62.1,30.08,ENE,76,7.0,13.0,80,0.00,,,0.00,meteohub,2013-09-08 15:59:00,
2013-09-08 12:05:00,68.5,62.4,30.09,East,96,11.0,13.0,81,0.00,,,0.00,meteohub,2013-09-08 16:05:00,
2013-09-08 12:10:00,68.7,62.2,30.09,East,86,8.0,13.0,80,0.00,,,0.00,meteohub,2013-09-08 16:10:00,
2013-09-08 12:15:00,69.1,62.6,30.09,ENE,77,6.0,16.0,80,0.00,,,0.00,meteohub,2013-09-08 16:15:00,
2013-09-08 12:20:00,68.7,62.2,30.09,ESE,104,8.0,16.0,80,0.00,,,0.00,meteohub,2013-09-08 16:20:00,
2013-09-08 12:26:00,68.7,61.9,30.09,ESE,102,11.0,16.0,79,0.00,,,0.00,meteohub,2013-09-08 16:26:00,
2013-09-08 12:31:00,68.7,62.2,30.09,East,82,9.0,16.0,80,0.00,,,0.00,meteohub,2013-09-08 16:31:00,
2013-09-08 12:36:00,69.3,62.4,30.09,East,85,8.0,16.0,79,0.00,,,0.00,meteohub,2013-09-08 16:36:00,
2013-09-08 12:41:00,69.3,62.1,30.09,East,86,11.0,19.0,78,0.00,,,0.00,meteohub,2013-09-08 16:41:00,
2013-09-08 12:47:00,69.4,61.9,30.09,East,93,11.0,19.0,77,0.00,,,0.00,meteohub,2013-09-08 16:47:00,
2013-09-08 12:52:00,69.6,62.4,30.09,ENE,67,11.0,16.0,78,0.00,,,0.00,meteohub,2013-09-08 16:52:00,
2013-09-08 12:57:00,69.4,62.2,30.09,ENE,63,9.0,16.0,78,0.00,,,0.00,meteohub,2013-09-08 16:57:00,
2013-09-08 13:02:00,69.8,62.2,30.09,ENE,68,5.0,16.0,77,0.00,,,0.00,meteohub,2013-09-08 17:02:00,
2013-09-08 13:07:00,70.3,62.4,30.09,NE,56,9.0,16.0,76,0.00,,,0.00,meteohub,2013-09-08 17:07:00,
2013-09-08 13:12:00,70.3,61.7,30.09,East,82,11.0,16.0,74,0.00,,,0.00,meteohub,2013-09-08 17:12:00,
2013-09-08 13:17:00,70.5,62.2,30.08,East,92,9.0,16.0,75,0.00,,,0.00,meteohub,2013-09-08 17:17:00,
2013-09-08 13:22:00,70.9,62.2,30.08,East,92,5.0,17.0,74,0.00,,,0.00,meteohub,2013-09-08 17:22:00,
2013-09-08 13:27:00,71.2,61.3,30.08,ENE,73,6.0,17.0,71,0.00,,,0.00,meteohub,2013-09-08 17:27:00,
2013-09-08 13:32:00,71.8,61.9,30.08,East,97,7.0,17.0,71,0.00,,,0.00,meteohub,2013-09-08 17:32:00,
2013-09-08 13:37:00,71.8,61.9,30.08,East,82,15.0,16.0,71,0.00,,,0.00,meteohub,2013-09-08 17:37:00,
2013-09-08 13:43:00,72.0,61.7,30.08,ESE,108,8.0,16.0,70,0.00,,,0.00,meteohub,2013-09-08 17:43:00,
2013-09-08 13:48:00,72.7,61.5,30.07,East,95,11.0,18.0,68,0.00,,,0.00,meteohub,2013-09-08 17:48:00,
2013-09-08 13:53:00,73.0,61.9,30.07,ESE,110,12.0,18.0,68,0.00,,,0.00,meteohub,2013-09-08 17:53:00,
2013-09-08 13:58:00,73.0,61.5,30.07,East,99,6.0,18.0,67,0.00,,,0.00,meteohub,2013-09-08 17:58:00,
2013-09-08 14:03:00,73.2,61.5,30.07,East,100,8.0,16.0,67,0.00,,,0.00,meteohub,2013-09-08 18:03:00,
2013-09-08 14:09:00,74.1,63.0,30.07,ENE,60,8.0,16.0,68,0.00,,,0.00,meteohub,2013-09-08 18:09:00,
2013-09-08 14:14:00,74.1,62.4,30.07,ESE,108,9.0,16.0,67,0.00,,,0.00,meteohub,2013-09-08 18:14:00,
2013-09-08 14:19:00,73.9,61.9,30.07,East,86,7.0,16.0,66,0.00,,,0.00,meteohub,2013-09-08 18:19:00,
2013-09-08 14:24:00,73.9,61.3,30.07,East,98,8.0,14.0,65,0.00,,,0.00,meteohub,2013-09-08 18:24:00,
2013-09-08 14:29:00,74.1,61.5,30.06,ESE,117,8.0,15.0,65,0.00,,,0.00,meteohub,2013-09-08 18:29:00,
2013-09-08 14:34:00,74.5,61.5,30.07,ENE,59,11.0,15.0,64,0.00,,,0.00,meteohub,2013-09-08 18:34:00,
2013-09-08 14:40:00,74.1,61.2,30.06,East,79,6.0,15.0,64,0.00,,,0.00,meteohub,2013-09-08 18:40:00,
2013-09-08 14:45:00,74.3,61.7,30.07,ENE,68,7.0,15.0,65,0.00,,,0.00,meteohub,2013-09-08 18:45:00,
2013-09-08 14:50:00,73.9,61.0,30.07,East,86,6.0,15.0,64,0.00,,,0.00,meteohub,2013-09-08 18:50:00,
2013-09-08 14:55:00,74.1,60.8,30.07,ENE,63,5.0,17.0,63,0.00,,,0.00,meteohub,2013-09-08 18:55:00,
2013-09-08 15:00:00,74.1,61.2,30.06,East,88,8.0,17.0,64,0.00,,,0.00,meteohub,2013-09-08 19:00:00,
2013-09-08 15:06:00,74.5,61.5,30.06,ESE,103,6.0,17.0,64,0.00,,,0.00,meteohub,2013-09-08 19:06:00,
2013-09-08 15:11:00,75.0,61.2,30.06,ESE,121,6.0,14.0,62,0.00,,,0.00,meteohub,2013-09-08 19:11:00,
2013-09-08 15:16:00,75.4,61.0,30.06,ESE,108,7.0,14.0,61,0.00,,,0.00,meteohub,2013-09-08 19:16:00,
2013-09-08 15:21:00,74.8,60.1,30.05,East,88,9.0,14.0,60,0.00,,,0.00,meteohub,2013-09-08 19:21:00,
2013-09-08 15:26:00,74.8,61.3,30.05,East,86,13.0,16.0,63,0.00,,,0.00,meteohub,2013-09-08 19:26:00,
2013-09-08 15:31:00,74.8,60.4,30.05,East,86,5.0,16.0,61,0.00,,,0.00,meteohub,2013-09-08 19:31:00,
2013-09-08 15:37:00,74.7,60.3,30.05,ENE,71,3.0,18.0,61,0.00,,,0.00,meteohub,2013-09-08 19:37:00,
2013-09-08 15:42:00,75.2,60.8,30.05,East,94,9.0,18.0,61,0.00,,,0.00,meteohub,2013-09-08 19:42:00,
2013-09-08 15:47:00,75.4,60.4,30.05,NE,37,9.0,18.0,60,0.00,,,0.00,meteohub,2013-09-08 19:47:00,
2013-09-08 15:52:00,75.4,59.5,30.05,ENE,68,3.0,13.0,58,0.00,,,0.00,meteohub,2013-09-08 19:52:00,
2013-09-08 15:57:00,75.4,60.1,30.05,ESE,105,3.0,13.0,59,0.00,,,0.00,meteohub,2013-09-08 19:57:00,
2013-09-08 16:02:00,75.4,60.4,30.05,ESE,115,4.0,13.0,60,0.00,,,0.00,meteohub,2013-09-08 20:02:00,
2013-09-08 16:07:00,75.4,59.5,30.05,East,80,6.0,11.0,58,0.00,,,0.00,meteohub,2013-09-08 20:07:00,
2013-09-08 16:12:00,75.6,60.3,30.04,ESE,110,6.0,11.0,59,0.00,,,0.00,meteohub,2013-09-08 20:12:00,
2013-09-08 16:17:00,75.7,59.9,30.04,SE,135,11.0,12.0,58,0.00,,,0.00,meteohub,2013-09-08 20:17:00,
2013-09-08 16:22:00,75.7,59.9,30.04,East,96,7.0,12.0,58,0.00,,,0.00,meteohub,2013-09-08 20:22:00,
2013-09-08 16:27:00,75.7,59.0,30.04,ENE,57,6.0,13.0,56,0.00,,,0.00,meteohub,2013-09-08 20:27:00,
2013-09-08 16:32:00,75.7,59.0,30.03,East,101,3.0,13.0,56,0.00,,,0.00,meteohub,2013-09-08 20:32:00,
2013-09-08 16:37:00,75.6,59.2,30.03,East,97,8.0,13.0,57,0.00,,,0.00,meteohub,2013-09-08 20:37:00,
2013-09-08 16:42:00,75.4,59.5,30.03,ESE,116,4.0,13.0,58,0.00,,,0.00,meteohub,2013-09-08 20:42:00,
2013-09-08 16:47:00,75.4,59.5,30.03,East,79,12.0,13.0,58,0.00,,,0.00,meteohub,2013-09-08 20:47:00,
2013-09-08 16:52:00,75.4,59.5,30.03,East,84,9.0,12.0,58,0.00,,,0.00,meteohub,2013-09-08 20:52:00,
2013-09-08 16:57:00,75.4,59.5,30.04,ENE,65,9.0,12.0,58,0.00,,,0.00,meteohub,2013-09-08 20:57:00,
2013-09-08 17:02:00,75.4,59.0,30.04,East,96,7.0,12.0,57,0.00,,,0.00,meteohub,2013-09-08 21:02:00,
2013-09-08 17:07:00,75.4,59.5,30.04,NE,40,5.0,12.0,58,0.00,,,0.00,meteohub,2013-09-08 21:07:00,
2013-09-08 17:13:00,75.6,59.2,30.04,ESE,116,9.0,12.0,57,0.00,,,0.00,meteohub,2013-09-08 21:13:00,
2013-09-08 17:18:00,75.6,58.8,30.04,East,86,6.0,11.0,56,0.00,,,0.00,meteohub,2013-09-08 21:18:00,
2013-09-08 17:23:00,75.4,59.0,30.04,SE,139,3.0,11.0,57,0.00,,,0.00,meteohub,2013-09-08 21:23:00,
2013-09-08 17:28:00,75.6,59.7,30.04,SE,137,1.0,11.0,58,0.00,,,0.00,meteohub,2013-09-08 21:28:00,
2013-09-08 17:33:00,75.6,59.7,30.04,ENE,65,4.0,8.0,58,0.00,,,0.00,meteohub,2013-09-08 21:33:00,
2013-09-08 17:39:00,75.6,60.3,30.04,ENE,65,5.0,11.0,59,0.00,,,0.00,meteohub,2013-09-08 21:39:00,
2013-09-08 17:44:00,75.4,59.5,30.04,East,94,6.0,11.0,58,0.00,,,0.00,meteohub,2013-09-08 21:44:00,
2013-09-08 17:49:00,75.4,59.5,30.04,East,98,6.0,11.0,58,0.00,,,0.00,meteohub,2013-09-08 21:49:00,
2013-09-08 17:54:00,75.4,59.5,30.04,East,81,4.0,11.0,58,0.00,,,0.00,meteohub,2013-09-08 21:54:00,
2013-09-08 17:59:00,75.2,59.9,30.04,East,85,10.0,11.0,59,0.00,,,0.00,meteohub,2013-09-08 21:59:00,
2013-09-08 18:05:00,75.0,59.7,30.04,ENE,77,2.0,11.0,59,0.00,,,0.00,meteohub,2013-09-08 22:05:00,
2013-09-08 18:10:00,75.0,60.3,30.03,ENE,71,6.0,11.0,60,0.00,,,0.00,meteohub,2013-09-08 22:10:00,
2013-09-08 18:15:00,74.8,60.1,30.03,East,96,5.0,10.0,60,0.00,,,0.00,meteohub,2013-09-08 22:15:00,
2013-09-08 18:20:00,74.7,59.4,30.04,ENE,71,7.0,11.0,59,0.00,,,0.00,meteohub,2013-09-08 22:20:00,
2013-09-08 18:26:00,74.5,59.7,30.03,ENE,72,4.0,11.0,60,0.00,,,0.00,meteohub,2013-09-08 22:26:00,
2013-09-08 18:31:00,74.3,59.9,30.03,East,79,7.0,11.0,61,0.00,,,0.00,meteohub,2013-09-08 22:31:00,
2013-09-08 18:36:00,74.1,59.7,30.03,NE,51,5.0,11.0,61,0.00,,,0.00,meteohub,2013-09-08 22:36:00,
2013-09-08 18:41:00,73.9,59.7,30.03,NE,54,7.0,9.0,61,0.00,,,0.00,meteohub,2013-09-08 22:41:00,
2013-09-08 18:47:00,73.8,59.5,30.02,ENE,71,6.0,9.0,61,0.00,,,0.00,meteohub,2013-09-08 22:47:00,
2013-09-08 18:52:00,73.6,59.7,30.03,NE,53,6.0,11.0,62,0.00,,,0.00,meteohub,2013-09-08 22:52:00,
2013-09-08 18:57:00,73.4,59.2,30.03,ENE,68,4.0,11.0,61,0.00,,,0.00,meteohub,2013-09-08 22:57:00,
2013-09-08 19:02:00,73.2,59.4,30.03,East,99,9.0,12.0,62,0.00,,,0.00,meteohub,2013-09-08 23:02:00,
2013-09-08 19:07:00,72.9,59.5,30.03,East,84,5.0,12.0,63,0.00,,,0.00,meteohub,2013-09-08 23:07:00,
2013-09-08 19:12:00,72.5,59.5,30.02,ENE,72,6.0,12.0,64,0.00,,,0.00,meteohub,2013-09-08 23:12:00,
2013-09-08 19:17:00,72.3,59.5,30.02,East,86,3.0,11.0,64,0.00,,,0.00,meteohub,2013-09-08 23:17:00,
2013-09-08 19:23:00,72.1,59.4,30.02,East,88,4.0,11.0,64,0.00,,,0.00,meteohub,2013-09-08 23:23:00,
2013-09-08 19:28:00,72.0,59.5,30.02,ESE,107,2.0,9.0,65,0.00,,,0.00,meteohub,2013-09-08 23:28:00,
2013-09-08 19:33:00,71.4,59.5,30.02,East,89,6.0,9.0,66,0.00,,,0.00,meteohub,2013-09-08 23:33:00,
2013-09-08 19:38:00,71.2,59.4,30.02,East,80,3.0,9.0,66,0.00,,,0.00,meteohub,2013-09-08 23:38:00,
2013-09-08 19:43:00,70.9,59.4,30.02,ENE,65,4.0,7.0,67,0.00,,,0.00,meteohub,2013-09-08 23:43:00,
2013-09-08 19:49:00,70.9,59.4,30.02,East,82,6.0,7.0,67,0.00,,,0.00,meteohub,2013-09-08 23:49:00,
2013-09-08 19:54:00,70.5,59.0,30.01,ENE,71,5.0,8.0,67,0.00,,,0.00,meteohub,2013-09-08 23:54:00,
2013-09-08 19:59:00,70.3,58.8,30.01,East,82,4.0,8.0,67,0.00,,,0.00,meteohub,2013-09-08 23:59:00,
2013-09-08 20:04:00,70.3,59.4,30.01,East,83,5.0,9.0,68,0.00,,,0.00,meteohub,2013-09-09 00:04:00,
2013-09-08 20:09:00,70.2,59.2,30.01,East,79,4.0,9.0,68,0.00,,,0.00,meteohub,2013-09-09 00:09:00,
2013-09-08 20:15:00,70.0,59.4,30.02,East,86,5.0,8.0,69,0.00,,,0.00,meteohub,2013-09-09 00:15:00,
2013-09-08 20:20:00,69.6,59.0,30.01,East,97,7.0,8.0,69,0.00,,,0.00,meteohub,2013-09-09 00:20:00,
2013-09-08 20:25:00,69.6,59.4,30.01,East,99,6.0,8.0,70,0.00,,,0.00,meteohub,2013-09-09 00:25:00,
2013-09-08 20:30:00,69.3,59.0,30.01,East,98,4.0,10.0,70,0.00,,,0.00,meteohub,2013-09-09 00:30:00,
2013-09-08 20:36:00,69.1,58.8,30.02,ENE,78,4.0,10.0,70,0.00,,,0.00,meteohub,2013-09-09 00:36:00,
2013-09-08 20:41:00,68.9,59.2,30.02,ENE,73,2.0,10.0,71,0.00,,,0.00,meteohub,2013-09-09 00:41:00,
2013-09-08 20:46:00,68.7,59.0,30.02,ENE,75,6.0,9.0,71,0.00,,,0.00,meteohub,2013-09-09 00:46:00,
2013-09-08 20:51:00,68.5,58.8,30.02,SE,126,4.0,9.0,71,0.00,,,0.00,meteohub,2013-09-09 00:51:00,
2013-09-08 20:56:00,68.5,59.2,30.02,East,88,2.0,9.0,72,0.00,,,0.00,meteohub,2013-09-09 00:56:00,
2013-09-08 21:02:00,68.4,59.0,30.02,ESE,110,4.0,10.0,72,0.00,,,0.00,meteohub,2013-09-09 01:02:00,
2013-09-08 21:07:00,68.4,59.0,30.02,East,99,3.0,10.0,72,0.00,,,0.00,meteohub,2013-09-09 01:07:00,
2013-09-08 21:12:00,68.2,59.2,30.02,East,89,4.0,10.0,73,0.00,,,0.00,meteohub,2013-09-09 01:12:00,
2013-09-08 21:17:00,68.0,59.0,30.02,East,99,5.0,8.0,73,0.00,,,0.00,meteohub,2013-09-09 01:17:00,
2013-09-08 21:22:00,67.8,58.8,30.03,East,96,6.0,8.0,73,0.00,,,0.00,meteohub,2013-09-09 01:22:00,
2013-09-08 21:27:00,67.6,58.6,30.03,East,84,3.0,8.0,73,0.00,,,0.00,meteohub,2013-09-09 01:27:00,
2013-09-08 21:32:00,67.6,59.0,30.03,NE,54,4.0,8.0,74,0.00,,,0.00,meteohub,2013-09-09 01:32:00,
2013-09-08 21:37:00,67.5,58.8,30.03,East,79,4.0,8.0,74,0.00,,,0.00,meteohub,2013-09-09 01:37:00,
2013-09-08 21:42:00,67.3,58.6,30.03,ENE,74,5.0,8.0,74,0.00,,,0.00,meteohub,2013-09-09 01:42:00,
2013-09-08 21:47:00,67.1,58.5,30.03,East,84,4.0,8.0,74,0.00,,,0.00,meteohub,2013-09-09 01:47:00,
2013-09-08 21:52:00,66.9,58.3,30.02,SE,133,4.0,8.0,74,0.00,,,0.00,meteohub,2013-09-09 01:52:00,
2013-09-08 21:57:00,66.7,58.1,30.02,ESE,113,3.0,8.0,74,0.00,,,0.00,meteohub,2013-09-09 01:57:00,
2013-09-08 22:02:00,66.6,58.5,30.02,ESE,110,8.0,8.0,75,0.00,,,0.00,meteohub,2013-09-09 02:02:00,
2013-09-08 22:07:00,66.6,58.5,30.02,ENE,70,3.0,10.0,75,0.00,,,0.00,meteohub,2013-09-09 02:07:00,
2013-09-08 22:12:00,66.4,58.3,30.02,East,90,4.0,11.0,75,0.00,,,0.00,meteohub,2013-09-09 02:12:00,
2013-09-08 22:17:00,66.2,58.1,30.02,East,91,5.0,11.0,75,0.00,,,0.00,meteohub,2013-09-09 02:17:00,
2013-09-08 22:22:00,66.0,58.3,30.02,East,92,3.0,8.0,76,0.00,,,0.00,meteohub,2013-09-09 02:22:00,
2013-09-08 22:27:00,65.8,58.1,30.01,East,92,5.0,8.0,76,0.00,,,0.00,meteohub,2013-09-09 02:27:00,
2013-09-08 22:32:00,65.8,58.1,30.01,East,81,3.0,9.0,76,0.00,,,0.00,meteohub,2013-09-09 02:32:00,
2013-09-08 22:37:00,65.7,57.9,30.01,ESE,110,6.0,9.0,76,0.00,,,0.00,meteohub,2013-09-09 02:37:00,
2013-09-08 22:42:00,65.7,57.9,30.01,East,90,3.0,9.0,76,0.00,,,0.00,meteohub,2013-09-09 02:42:00,
2013-09-08 22:47:00,65.5,57.7,30.01,ENE,76,6.0,10.0,76,0.00,,,0.00,meteohub,2013-09-09 02:47:00,
2013-09-08 22:52:00,65.5,57.7,30.01,ESE,110,5.0,10.0,76,0.00,,,0.00,meteohub,2013-09-09 02:52:00,
2013-09-08 22:57:00,65.5,57.7,30.02,ESE,105,5.0,9.0,76,0.00,,,0.00,meteohub,2013-09-09 02:57:00,
2013-09-08 23:02:00,65.5,57.7,30.02,East,94,4.0,9.0,76,0.00,,,0.00,meteohub,2013-09-09 03:02:00,
2013-09-08 23:07:00,65.3,57.9,30.02,East,89,4.0,8.0,77,0.00,,,0.00,meteohub,2013-09-09 03:07:00,
2013-09-08 23:13:00,65.1,57.7,30.02,East,90,3.0,10.0,77,0.00,,,0.00,meteohub,2013-09-09 03:13:00,
2013-09-08 23:18:00,65.1,57.7,30.02,East,85,4.0,10.0,77,0.00,,,0.00,meteohub,2013-09-09 03:18:00,
2013-09-08 23:23:00,64.9,57.6,30.02,ENE,71,4.0,8.0,77,0.00,,,0.00,meteohub,2013-09-09 03:23:00,
2013-09-08 23:28:00,64.9,57.9,30.02,ESE,118,4.0,8.0,78,0.00,,,0.00,meteohub,2013-09-09 03:28:00,
2013-09-08 23:34:00,64.8,57.7,30.02,SE,131,3.0,7.0,78,0.00,,,0.00,meteohub,2013-09-09 03:34:00,
2013-09-08 23:39:00,64.8,57.7,30.03,East,86,6.0,7.0,78,0.00,,,0.00,meteohub,2013-09-09 03:39:00,
2013-09-08 23:44:00,64.6,57.6,30.03,East,85,4.0,7.0,78,0.00,,,0.00,meteohub,2013-09-09 03:44:00,
2013-09-08 23:49:00,64.6,57.9,30.03,East,79,3.0,7.0,79,0.00,,,0.00,meteohub,2013-09-09 03:49:00,
2013-09-08 23:55:00,64.6,57.9,30.03,ENE,68,3.0,7.0,79,0.00,,,0.00,meteohub,2013-09-09 03:55:00,